Wind_Speed
10 11 12 13 13 13 13 13 14 14 15 15 15 15 16 16 16 16 16 16 17 18 18 18 18 19 19 20 21 22 22 23 24 25 25 25 25 26
10 10 11 12 13 13 13 13 14 14 15 15 15 16 16 16 16 17 17 18 19 19 19 19 20 21 21 22 22 23 23 23 24 25 25 25 26 27
11 12 11 12 12 13 13 13 13 14 15 15 15 16 16 17 17 17 18 19 19 19 19 20 21 22 22 23 23 24 24 25 25 25 26 27 28 28
12 12 13 13 13 13 14 15 15 15 15 15 16 17 17 17 18 19 19 19 19 19 20 21 21 22 23 24 25 24 24 25 26 27 27 27 28 29
12 12 13 14 14 14 15 15 16 16 16 17 18 18 18 19 19 19 19 19 20 20 21 22 23 23 24 26 26 26 26 26 26 27 27 28 29 29
13 14 14 15 15 15 16 16 17 18 18 18 19 19 20 20 20 20 20 20 21 22 23 24 25 25 26 26 26 26 26 26 27 27 28 29 29 30
14 15 16 16 17 17 17 18 19 19 19 19 19 20 20 20 20 21 21 22 22 23 24 25 26 26 26 26 26 26 27 27 28 28 29 30 30 30
16 16 17 17 18 18 19 20 20 20 19 20 20 21 21 21 22 23 23 24 24 25 26 27 27 28 28 27 27 27 28 29 29 29 30 31 31 31
17 17 18 19 19 19 19 20 20 20 21 21 21 22 23 23 24 25 25 26 26 27 28 28 29 29 29 29 29 29 30 30 31 30 31 31 32 32
21 20 20 20 20 21 21 21 21 22 23 23 23 24 25 25 26 27 27 27 28 29 29 30 30 30 30 30 31 31 31 32 32 32 32 32 32 32
23 23 23 22 22 23 23 23 23 24 24 24 25 25 26 27 27 28 28 28 29 30 30 30 30 30 31 31 31 32 32 32 33 33 33 32 32 32
25 25 24 24 24 24 25 25 25 25 26 26 27 28 28 28 28 29 29 30 30 31 31 31 31 31 31 31 32 33 33 33 33 33 33 33 32 32
27 26 26 26 26 26 26 26 27 28 28 28 29 29 29 29 30 30 30 30 30 30 31 31 32 32 32 32 33 33 33 33 33 33 33 33 33 32
28 28 28 28 28 28 28 28 28 29 29 30 30 30 30 30 30 30 30 30 31 31 31 32 32 32 32 32 33 33 34 34 33 33 33 33 33 32
30 30 30 31 31 30 30 30 30 30 30 30 30 31 31 31 31 31 31 32 32 32 32 32 32 32 33 33 32 33 33 33 34 34 34 34 34 33
32 32 32 32 33 32 32 31 31 31 31 31 31 32 32 32 32 32 33 33 34 34 34 33 33 33 33 33 33 33 34 34 35 34 34 34 34 33
34 34 34 35 35 34 34 33 33 33 33 33 33 33 33 34 34 35 34 34 34 34 35 35 34 34 34 34 35 35 35 35 35 35 34 33 33 34
36 36 36 36 36 36 36 35 35 35 35 35 34 35 35 35 35 36 36 35 35 35 36 36 36 36 36 36 36 36 36 36 36 35 35 34 33 33
38 38 38 37 37 37 36 36 36 36 36 36 35 36 36 36 36 36 36 36 36 36 36 36 37 37 36 36 36 36 36 36 36 36 35 35 34 34
39 39 38 38 37 36 36 36 37 37 37 37 36 36 37 37 37 36 36 36 36 36 36 36 37 37 37 37 36 36 37 37 36 36 35 35 34 34
40 40 39 38 37 37 37 38 38 38 38 38 37 37 37 37 37 37 37 37 37 38 38 37 38 38 38 38 37 37 37 37 36 36 36 36 35 35
39 39 39 39 38 38 38 37 38 38 38 38 38 38 37 37 37 37 37 37 38 38 38 38 38 38 38 38 37 37 37 37 37 37 37 37 36 35
39 38 38 38 38 37 37 37 37 38 38 38 38 38 38 37 38 38 38 38 39 39 38 38 38 38 38 38 38 38 37 37 37 37 36 36 36 36
Wind_Direction
276 278 279 280 280 278 277 278 277 275 276 278 280 279 282 282 281 279 278 277 277 279 280 280 279 281 283 284 283 281 281 280 279 279 277 278 278 278
281 284 284 283 280 280 279 279 277 276 274 276 279 280 281 280 281 279 280 280 280 280 281 282 282 282 283 285 285 283 284 283 282 281 279 278 278 280
287 286 289 291 287 283 282 283 282 279 277 277 279 280 283 287 284 284 283 283 282 281 284 286 285 284 285 286 286 284 284 284 283 283 282 280 281 281
294 291 290 291 291 289 286 284 283 280 278 279 282 285 286 287 285 284 284 282 281 283 284 285 285 286 286 285 285 284 285 285 284 284 283 282 281 280
296 296 296 295 293 289 287 286 286 282 279 279 282 285 287 286 287 286 285 283 283 285 285 285 284 285 285 284 284 286 286 286 286 286 283 282 281 280
298 298 299 298 298 294 289 288 287 284 281 281 283 285 286 287 287 287 287 285 285 286 286 287 286 286 285 285 286 286 287 287 287 286 285 283 283 283
297 298 297 296 295 295 291 289 288 285 284 284 283 283 285 287 287 287 287 286 285 286 286 287 287 287 287 287 287 286 287 288 288 287 287 286 285 285
297 296 296 295 295 294 293 292 289 286 285 286 285 284 285 286 285 286 285 286 286 286 287 288 288 288 288 288 287 288 289 290 290 288 288 287 286 286
297 295 295 295 294 294 294 292 291 289 287 286 286 287 286 287 287 287 286 287 287 287 288 288 288 288 288 287 288 289 290 290 290 289 288 288 288 287
298 297 295 295 294 293 293 292 292 290 288 286 287 288 289 289 288 288 287 287 287 287 288 288 288 287 287 287 287 289 290 290 290 289 289 289 288 287
299 299 295 293 294 293 292 292 291 292 291 289 289 288 288 287 287 288 287 287 287 288 288 288 288 288 288 288 288 288 290 289 290 290 289 288 288 288
299 300 297 294 295 295 294 293 292 291 292 292 291 290 289 288 287 287 288 288 288 288 288 287 287 287 288 288 289 289 289 289 289 290 289 287 287 287
297 297 297 297 297 298 296 295 294 293 292 292 292 291 290 289 289 288 288 289 289 289 289 288 288 287 287 288 289 289 289 290 290 290 289 287 287 286
295 294 295 296 297 296 296 296 295 293 292 292 293 292 291 290 290 289 289 289 288 289 289 289 289 288 288 288 289 289 290 290 290 290 289 287 287 287
294 294 294 294 295 296 296 295 295 294 292 292 293 292 291 291 290 289 289 289 289 290 290 289 288 288 288 288 288 288 289 289 289 288 288 287 287 287
294 293 295 295 295 295 295 294 294 294 293 292 292 291 291 290 290 290 289 290 289 289 289 288 288 288 287 287 287 288 288 288 288 288 287 287 287 287
294 294 294 294 295 294 293 293 293 292 292 292 291 290 290 289 289 289 289 289 289 289 289 289 289 288 287 286 287 287 288 288 289 288 287 287 287 287
293 293 293 293 292 292 292 292 292 290 290 291 291 291 290 289 289 289 289 289 289 289 289 289 288 288 288 287 287 288 289 289 290 289 288 287 287 288
292 292 292 292 291 291 291 291 290 289 290 291 292 291 291 290 290 290 289 289 288 288 289 288 287 287 286 287 287 288 288 289 289 289 287 286 286 286
291 291 291 291 290 290 290 290 290 289 289 289 290 291 291 291 290 289 289 289 289 288 288 287 287 286 286 287 287 286 287 288 287 286 285 285 285 285
289 289 290 290 290 290 289 290 290 290 289 289 289 289 289 290 290 289 289 289 288 288 288 287 287 286 286 286 286 285 286 286 285 284 284 285 285 285
288 289 289 289 289 290 289 289 290 290 290 291 290 290 290 289 289 289 289 289 289 288 288 287 287 286 286 286 286 285 285 285 285 284 284 284 284 284
289 289 289 289 289 289 289 289 289 289 290 290 290 291 291 290 290 290 289 290 290 289 288 287 287 287 287 286 286 285 285 284 285 284 283 283 283 283
Height
5876 5876 5875 5874 5873 5872 5871 5870 5869 5868 5867 5866 5865 5864 5863 5862 5860 5859 5857 5856 5855 5854 5853 5851 5850 5849 5848 5847 5846 5844 5843 5841 5840 5838 5837 5836 5834 5833
5873 5872 5871 5870 5868 5868 5866 5865 5864 5864 5862 5862 5861 5860 5858 5857 5855 5854 5853 5851 5850 5849 5848 5846 5845 5844 5843 5841 5840 5838 5837 5835 5834 5832 5830 5829 5828 5826
5870 5869 5868 5866 5865 5864 5863 5861 5860 5859 5858 5857 5856 5855 5854 5853 5851 5849 5848 5847 5845 5844 5843 5841 5840 5839 5837 5835 5834 5832 5830 5829 5827 5825 5824 5822 5820 5819
5866 5865 5864 5863 5861 5860 5859 5857 5856 5855 5854 5853 5852 5850 5849 5848 5846 5844 5843 5841 5840 5839 5837 5835 5834 5833 5831 5830 5828 5826 5824 5822 5820 5818 5816 5815 5813 5811
5863 5862 5860 5859 5857 5856 5854 5853 5851 5850 5849 5848 5846 5845 5844 5842 5841 5839 5838 5836 5835 5833 5831 5830 5828 5826 5825 5823 5821 5819 5817 5815 5813 5811 5809 5807 5805 5802
5859 5858 5856 5855 5853 5852 5850 5848 5847 5845 5843 5842 5841 5840 5838 5837 5835 5834 5832 5830 5829 5827 5825 5824 5821 5819 5818 5816 5814 5812 5810 5807 5805 5803 5801 5799 5797 5795
5855 5853 5852 5850 5849 5847 5845 5843 5841 5840 5838 5837 5835 5834 5833 5831 5830 5828 5826 5824 5823 5821 5819 5817 5815 5812 5810 5808 5806 5804 5802 5800 5798 5795 5793 5791 5788 5786
5850 5849 5847 5846 5844 5842 5840 5838 5836 5835 5833 5831 5830 5828 5827 5825 5824 5822 5820 5818 5816 5814 5812 5810 5807 5805 5803 5801 5799 5796 5794 5792 5789 5787 5785 5782 5780 5778
5845 5843 5842 5840 5838 5836 5834 5833 5831 5829 5827 5826 5824 5822 5820 5819 5817 5815 5813 5811 5809 5806 5804 5802 5799 5797 5795 5793 5790 5788 5786 5783 5781 5778 5776 5773 5771 5769
5841 5839 5837 5834 5832 5830 5829 5827 5825 5823 5821 5819 5817 5815 5813 5811 5809 5807 5805 5803 5800 5798 5796 5794 5791 5789 5786 5784 5782 5779 5777 5774 5772 5769 5766 5764 5762 5759
5834 5833 5830 5828 5826 5824 5822 5820 5818 5816 5814 5812 5810 5808 5805 5803 5801 5799 5796 5794 5792 5790 5787 5785 5783 5780 5778 5775 5772 5770 5767 5765 5762 5760 5757 5755 5752 5750
5828 5826 5823 5821 5819 5817 5815 5813 5811 5809 5807 5805 5802 5800 5797 5795 5793 5790 5788 5786 5783 5781 5778 5776 5773 5771 5769 5766 5764 5761 5758 5755 5753 5750 5748 5745 5743 5740
5822 5819 5817 5814 5812 5810 5808 5806 5803 5801 5799 5796 5794 5791 5789 5786 5784 5781 5779 5777 5774 5772 5769 5767 5764 5762 5759 5757 5754 5751 5749 5746 5743 5741 5738 5735 5733 5731
5814 5812 5809 5807 5805 5802 5800 5798 5795 5793 5790 5788 5785 5783 5780 5778 5775 5772 5770 5767 5765 5763 5760 5757 5755 5752 5750 5747 5745 5742 5739 5736 5733 5730 5728 5726 5723 5721
5806 5803 5801 5799 5796 5794 5792 5789 5786 5784 5781 5779 5776 5774 5771 5768 5766 5763 5760 5758 5755 5753 5750 5747 5745 5742 5740 5737 5735 5732 5729 5726 5723 5721 5718 5716 5713 5711
5797 5795 5792 5790 5787 5785 5782 5780 5777 5775 5772 5769 5767 5764 5761 5758 5756 5753 5751 5748 5745 5743 5740 5737 5735 5732 5729 5727 5724 5722 5719 5716 5713 5710 5708 5705 5703 5700
5788 5785 5783 5780 5778 5775 5773 5770 5767 5765 5762 5759 5757 5754 5751 5749 5746 5743 5740 5737 5735 5732 5729 5727 5724 5721 5719 5716 5713 5711 5708 5705 5702 5700 5697 5695 5692 5690
5778 5775 5773 5770 5767 5764 5762 5759 5757 5754 5751 5749 5746 5743 5741 5738 5735 5732 5729 5727 5724 5721 5718 5716 5713 5710 5708 5705 5703 5700 5697 5694 5692 5689 5687 5685 5682 5679
5768 5765 5762 5759 5757 5754 5751 5748 5746 5743 5740 5738 5735 5732 5729 5727 5724 5721 5718 5715 5713 5710 5707 5704 5702 5699 5696 5694 5691 5688 5685 5683 5680 5678 5675 5673 5671 5669
5756 5754 5751 5748 5745 5742 5740 5737 5734 5732 5729 5726 5723 5721 5718 5715 5712 5709 5707 5704 5701 5698 5695 5693 5690 5687 5685 5682 5680 5677 5674 5671 5669 5667 5664 5662 5660 5658
5744 5742 5739 5737 5734 5731 5728 5726 5723 5720 5717 5714 5711 5709 5706 5703 5700 5698 5695 5692 5689 5687 5684 5681 5678 5676 5673 5670 5668 5665 5662 5659 5657 5655 5653 5651 5649 5647
5732 5730 5727 5725 5722 5719 5716 5714 5711 5708 5705 5702 5699 5696 5694 5691 5689 5686 5683 5680 5677 5674 5671 5669 5666 5663 5660 5658 5656 5653 5651 5648 5645 5643 5641 5639 5637 5635
5720 5718 5715 5712 5710 5707 5705 5702 5699 5696 5693 5690 5687 5684 5682 5679 5676 5674 5671 5668 5665 5662 5659 5656 5653 5651 5648 5646 5643 5641 5638 5636 5633 5631 5629 5627 5625 5623